Location: Unspecified
(52.4292°N, 19.3359°E)
Time: 22:57:20
(UTC+02:00)

Altair - Pass Details

Date: 23 May 2024
Orbit: 1502 x 1682 km, 47.2° (Epoch: 19 June)

Event Time Altitude Azimuth Distance (km) Brightness Sun altitude
Rises 13:53:11 0° 267° (W) 4,883 10.4 55.2°
Reaches altitude 10° 13:56:19 10° 265° (W) 3,912 10.1 55.0°
Maximum altitude 14:06:15 66° 186° (S) 1,812 9.7 54.1°
Drops below altitude 10° 14:16:14 10° 108° (ESE) 3,936 9.6 53.2°
Sets 14:19:25 0° 106° (ESE) 4,913 10.0 52.9°
